| time (UTC) | temp F | wind direction | speed MPH | gust MPH | rain 1hr in | rain 24hr in | rain mn in | humidity % | barometer mb |
| 20260505003754 | 63 | 164 | 4.0 | 16.0 | 0.00 | 0.00 | 0.00 | 50 | 1007.9 |
| 20260505002753 | 64 | 192 | 4.0 | 18.0 | 0.00 | 0.00 | 0.00 | 49 | 1007.8 |
| 20260505001748 | 64 | 188 | 6.0 | 19.0 | 0.00 | 0.00 | 0.00 | 49 | 1007.7 |
| 20260505000748 | 64 | 161 | 4.0 | 12.0 | 0.00 | 0.00 | 0.00 | 49 | 1007.5 |
| 20260504235748 | 64 | 191 | 4.0 | 16.0 | 0.00 | 0.00 | 0.00 | 49 | 1007.5 |
| 20260504234748 | 64 | 159 | 5.0 | 15.0 | 0.00 | 0.00 | 0.00 | 48 | 1007.6 |
| 20260504233747 | 64 | 167 | 6.0 | 13.0 | 0.00 | 0.00 | 0.00 | 48 | 1007.3 |
| 20260504232746 | 65 | 200 | 6.0 | 15.0 | 0.00 | 0.00 | 0.00 | 47 | 1007.4 |
| 20260504231745 | 65 | 172 | 5.0 | 13.0 | 0.00 | 0.00 | 0.00 | 46 | 1007.5 |
| 20260504230744 | 66 | 142 | 8.0 | 9.0 | 0.00 | 0.00 | 0.00 | 46 | 1007.4 |
| 20260504225741 | 66 | 163 | 4.0 | 15.0 | 0.00 | 0.00 | 0.00 | 46 | 1007.4 |
| 20260504224740 | 67 | 160 | 3.0 | 9.0 | 0.00 | 0.00 | 0.00 | 46 | 1007.1 |
| 20260504223739 | 67 | 184 | 7.0 | 17.0 | 0.00 | 0.00 | 0.00 | 44 | 1007.2 |
| 20260504222738 | 67 | 191 | 8.0 | 11.0 | 0.00 | 0.00 | 0.00 | 45 | 1007.0 |
| 20260504221738 | 67 | 192 | 6.0 | 14.0 | 0.00 | 0.00 | 0.00 | 45 | 1007.1 |
| 20260504220737 | 68 | 182 | 5.0 | 6.0 | 0.00 | 0.00 | 0.00 | 45 | 1007.1 |
| 20260504215737 | 67 | 157 | 3.0 | 14.0 | 0.00 | 0.00 | 0.00 | 45 | 1007.3 |
| 20260504214735 | 68 | 183 | 4.0 | 10.0 | 0.00 | 0.00 | 0.00 | 44 | 1007.3 |
| 20260504213735 | 68 | 201 | 6.0 | 13.0 | 0.00 | 0.00 | 0.00 | 43 | 1007.2 |
| 20260504212734 | 68 | 173 | 4.0 | 14.0 | 0.00 | 0.00 | 0.00 | 43 | 1007.3 |
| 20260504211734 | 67 | 173 | 4.0 | 14.0 | 0.00 | 0.00 | 0.00 | 43 | 1007.3 |
| 20260504210734 | 67 | 197 | 4.0 | 11.0 | 0.00 | 0.00 | 0.00 | 44 | 1007.5 |
| 20260504205733 | 68 | 162 | 6.0 | 7.0 | 0.00 | 0.00 | 0.00 | 44 | 1007.4 |
| 20260504204729 | 67 | 190 | 8.0 | 13.0 | 0.00 | 0.00 | 0.00 | 45 | 1007.6 |
| 20260504203726 | 65 | 174 | 4.0 | 16.0 | 0.00 | 0.00 | 0.00 | 46 | 1007.7 |
| 20260504202723 | 66 | 215 | 11.0 | 15.0 | 0.00 | 0.00 | 0.00 | 46 | 1008.1 |
| 20260504201723 | 66 | 164 | 3.0 | 16.0 | 0.00 | 0.00 | 0.00 | 47 | 1008.0 |
| 20260504200718 | 66 | 163 | 4.0 | 11.0 | 0.00 | 0.00 | 0.00 | 47 | 1008.3 |
| 20260504195716 | 67 | 214 | 9.0 | 12.0 | 0.00 | 0.00 | 0.00 | 45 | 1008.4 |
| 20260504194715 | 66 | 232 | 6.0 | 24.0 | 0.00 | 0.00 | 0.00 | 46 | 1008.6 |
| 20260504193714 | 66 | 207 | 13.0 | 19.0 | 0.00 | 0.00 | 0.00 | 44 | 1008.7 |
| 20260504192710 | 65 | 187 | 2.0 | 16.0 | 0.00 | 0.00 | 0.00 | 46 | 1008.6 |
| 20260504191706 | 68 | 205 | 4.0 | 13.0 | 0.00 | 0.00 | 0.00 | 43 | 1008.8 |
| 20260504190703 | 66 | 204 | 8.0 | 13.0 | 0.00 | 0.00 | 0.00 | 47 | 1009.0 |
| 20260504185702 | 65 | 206 | 11.0 | 14.0 | 0.00 | 0.00 | 0.00 | 47 | 1009.0 |
| 20260504184701 | 65 | 139 | 13.0 | 18.0 | 0.00 | 0.00 | 0.00 | 48 | 1008.9 |
| 20260504183659 | 66 | 208 | 3.0 | 16.0 | 0.00 | 0.00 | 0.00 | 47 | 1009.0 |
| 20260504182654 | 66 | 187 | 3.0 | 13.0 | 0.00 | 0.00 | 0.00 | 47 | 1009.1 |
| 20260504181649 | 66 | 233 | 10.0 | 18.0 | 0.00 | 0.00 | 0.00 | 44 | 1009.2 |
| 20260504180645 | 68 | 175 | 6.0 | 7.0 | 0.00 | 0.00 | 0.00 | 43 | 1009.4 |
| 20260504175640 | 64 | 206 | 13.0 | 16.0 | 0.00 | 0.00 | 0.00 | 46 | 1009.3 |
| 20260504174635 | 63 | 152 | 9.0 | 15.0 | 0.00 | 0.00 | 0.00 | 46 | 1009.4 |
| 20260504173634 | 65 | 198 | 5.0 | 17.0 | 0.00 | 0.00 | 0.00 | 51 | 1009.7 |
| 20260504172634 | 64 | 203 | 7.0 | 12.0 | 0.00 | 0.00 | 0.00 | 45 | 1009.8 |
| 20260504171633 | 64 | 305 | 6.0 | 13.0 | 0.00 | 0.00 | 0.00 | 48 | 1009.6 |
| 20260504170632 | 64 | 195 | 3.0 | 16.0 | 0.00 | 0.00 | 0.00 | 52 | 1009.9 |
| 20260504150612 | 58 | 199 | 9.0 | 19.0 | 0.00 | 0.00 | 0.00 | 50 | 1011.1 |
| 20260504140603 | 54 | 230 | 10.0 | 17.0 | 0.00 | 0.00 | 0.00 | 51 | 1011.3 |
| 20260504130550 | 53 | 184 | 10.0 | 12.0 | 0.00 | 0.00 | 0.00 | 52 | 1011.7 |
| 20260504110531 | 46 | 192 | 5.0 | 12.0 | 0.00 | 0.00 | 0.00 | 59 | 1011.8 |
| 20260504100516 | 44 | 202 | 2.0 | 4.0 | 0.00 | 0.00 | 0.00 | 62 | 1011.8 |
| 20260504081454 | 43 | 88 | 2.0 | 3.0 | 0.00 | 0.00 | 0.00 | 64 | 1011.9 |
| 20260504080452 | 43 | 88 | 3.0 | 3.0 | 0.00 | 0.00 | 0.00 | 64 | 1012.0 |
| 20260504050421 | 45 | 143 | 3.0 | 7.0 | 0.00 | 0.00 | 0.00 | 60 | 1012.1 |
| 20260504045419 | 45 | 217 | 2.0 | 5.0 | 0.00 | 0.00 | 0.00 | 60 | 1012.1 |
| 20260504044419 | 45 | 128 | 2.0 | 3.0 | 0.00 | 0.00 | 0.00 | 59 | 1012.4 |
| 20260504043419 | 45 | 238 | 2.0 | 4.0 | 0.00 | 0.00 | 0.00 | 58 | 1012.3 |
| 20260504042419 | 45 | 213 | 2.0 | 5.0 | 0.00 | 0.00 | 0.00 | 59 | 1012.1 |
| 20260504041418 | 45 | 173 | 1.0 | 2.0 | 0.00 | 0.00 | 0.00 | 59 | 1012.1 |
| 20260504040412 | 45 | 202 | 6.0 | 7.0 | 0.00 | 0.00 | 0.00 | 57 | 1012.3 |
| 20260504035411 | 45 | 193 | 0.0 | 4.0 | 0.00 | 0.00 | 0.00 | 57 | 1012.3 |
| 20260504034411 | 46 | 146 | 2.0 | 4.0 | 0.00 | 0.00 | 0.00 | 57 | 1012.0 |
| 20260504033406 | 46 | 111 | 2.0 | 6.0 | 0.00 | 0.00 | 0.00 | 56 | 1012.1 |
| 20260504032405 | 46 | 188 | 2.0 | 4.0 | 0.00 | 0.00 | 0.00 | 56 | 1012.3 |
| 20260504031405 | 46 | 150 | 2.0 | 3.0 | 0.00 | 0.00 | 0.00 | 56 | 1012.1 |
| 20260504030404 | 46 | 13 | 1.0 | 3.0 | 0.00 | 0.00 | 0.00 | 56 | 1012.4 |
| 20260504025403 | 45 | 113 | 2.0 | 3.0 | 0.00 | 0.00 | 0.00 | 56 | 1012.1 |
| 20260504024402 | 46 | 121 | 2.0 | 3.0 | 0.00 | 0.00 | 0.00 | 56 | 1012.3 |
| 20260504023401 | 46 | 150 | 0.0 | 2.0 | 0.00 | 0.00 | 0.00 | 55 | 1012.4 |
| 20260504022400 | 46 | 248 | 2.0 | 2.0 | 0.00 | 0.00 | 0.00 | 54 | 1012.3 |
| 20260504021359 | 46 | 58 | 1.0 | 3.0 | 0.00 | 0.00 | 0.00 | 55 | 1012.1 |
| 20260504020359 | 45 | 107 | 2.0 | 3.0 | 0.00 | 0.00 | 0.00 | 55 | 1012.4 |
| 20260504015357 | 46 | 80 | 2.0 | 3.0 | 0.00 | 0.00 | 0.00 | 55 | 1012.1 |
| 20260504014355 | 46 | 119 | 2.0 | 3.0 | 0.00 | 0.00 | 0.00 | 54 | 1012.5 |
| 20260504013350 | 47 | 134 | 2.0 | 3.0 | 0.00 | 0.00 | 0.00 | 53 | 1012.1 |
| 20260504012350 | 47 | 134 | 2.0 | 3.0 | 0.00 | 0.00 | 0.00 | 52 | 1012.0 |
| 20260504011350 | 47 | 38 | 0.0 | 3.0 | 0.00 | 0.00 | 0.00 | 53 | 1011.9 |
| 20260504010348 | 47 | 180 | 2.0 | 3.0 | 0.00 | 0.00 | 0.00 | 53 | 1011.8 |
| 20260504005347 | 47 | 115 | 1.0 | 2.0 | 0.00 | 0.00 | 0.00 | 53 | 1011.6 |